| time (UTC) | temp F | wind direction | speed MPH | gust MPH | rain 1hr in | rain 24hr in | rain mn in | humidity % | barometer mb |
| 20260505221046 | 51 | 74 | 2.0 | 13.0 | 0.00 | 0.00 | 0.00 | 56 | 1012.5 |
| 20260505220548 | 52 | 45 | 4.0 | 13.0 | 0.00 | 0.00 | 0.00 | 56 | 1012.5 |
| 20260505220053 | 52 | 94 | 2.0 | 13.0 | 0.00 | 0.00 | 0.00 | 56 | 1012.4 |
| 20260505215549 | 52 | 74 | 4.0 | 12.0 | 0.00 | 0.00 | 0.00 | 56 | 1012.3 |
| 20260505215048 | 52 | 273 | 4.0 | 12.0 | 0.00 | 0.00 | 0.00 | 55 | 1012.3 |
| 20260505214558 | 52 | 130 | 5.0 | 12.0 | 0.00 | 0.00 | 0.00 | 54 | 1012.3 |
| 20260505214049 | 52 | 51 | 4.0 | 13.0 | 0.00 | 0.00 | 0.00 | 55 | 1012.4 |
| 20260505213547 | 52 | 48 | 4.0 | 15.0 | 0.00 | 0.00 | 0.00 | 55 | 1012.4 |
| 20260505213053 | 52 | 351 | 7.0 | 15.0 | 0.00 | 0.00 | 0.00 | 54 | 1012.2 |
| 20260505212547 | 53 | 56 | 5.0 | 17.0 | 0.00 | 0.00 | 0.00 | 54 | 1012.4 |
| 20260505212045 | 53 | 357 | 7.0 | 20.0 | 0.00 | 0.00 | 0.00 | 53 | 1012.5 |
| 20260505211606 | 53 | 87 | 6.0 | 20.0 | 0.00 | 0.00 | 0.00 | 54 | 1012.3 |
| 20260505211051 | 53 | 89 | 5.0 | 14.0 | 0.00 | 0.00 | 0.00 | 53 | 1012.2 |
| 20260505210544 | 53 | 30 | 5.0 | 14.0 | 0.00 | 0.00 | 0.00 | 53 | 1012.5 |
| 20260505210049 | 53 | 75 | 2.0 | 16.0 | 0.00 | 0.00 | 0.00 | 53 | 1012.5 |
| 20260505205547 | 53 | 58 | 6.0 | 16.0 | 0.00 | 0.00 | 0.00 | 53 | 1012.7 |
| 20260505205049 | 53 | 72 | 6.0 | 16.0 | 0.00 | 0.00 | 0.00 | 52 | 1012.7 |
| 20260505204601 | 53 | 66 | 8.0 | 16.0 | 0.00 | 0.00 | 0.00 | 52 | 1012.7 |
| 20260505204048 | 53 | 51 | 5.0 | 12.0 | 0.00 | 0.00 | 0.00 | 52 | 1012.8 |
| 20260505203550 | 54 | 82 | 6.0 | 12.0 | 0.00 | 0.00 | 0.00 | 52 | 1012.8 |
| 20260505203058 | 54 | 46 | 4.0 | 15.0 | 0.00 | 0.00 | 0.00 | 52 | 1012.7 |
| 20260505202608 | 54 | 57 | 6.0 | 18.0 | 0.00 | 0.00 | 0.00 | 52 | 1012.7 |
| 20260505202052 | 54 | 79 | 4.0 | 18.0 | 0.00 | 0.00 | 0.00 | 53 | 1012.8 |
| 20260505201601 | 54 | 69 | 5.0 | 18.0 | 0.00 | 0.00 | 0.00 | 52 | 1012.9 |
| 20260505201048 | 54 | 23 | 4.0 | 15.0 | 0.00 | 0.00 | 0.00 | 52 | 1012.7 |
| 20260505200549 | 54 | 98 | 4.0 | 15.0 | 0.00 | 0.00 | 0.00 | 53 | 1012.7 |
| 20260505200103 | 54 | 23 | 7.0 | 14.0 | 0.00 | 0.00 | 0.00 | 52 | 1012.7 |
| 20260505195548 | 54 | 41 | 5.0 | 12.0 | 0.00 | 0.00 | 0.00 | 52 | 1013.0 |
| 20260505195047 | 54 | 49 | 6.0 | 18.0 | 0.00 | 0.00 | 0.00 | 51 | 1013.0 |
| 20260505194607 | 55 | 54 | 6.0 | 18.0 | 0.00 | 0.00 | 0.00 | 51 | 1013.1 |
| 20260505194050 | 55 | 18 | 6.0 | 18.0 | 0.00 | 0.00 | 0.00 | 50 | 1013.0 |
| 20260505193548 | 55 | 0 | 5.0 | 14.0 | 0.00 | 0.00 | 0.00 | 52 | 1012.9 |
| 20260505193052 | 55 | 55 | 5.0 | 14.0 | 0.00 | 0.00 | 0.00 | 52 | 1012.9 |
| 20260505192549 | 55 | 79 | 5.0 | 13.0 | 0.00 | 0.00 | 0.00 | 52 | 1012.9 |
| 20260505192050 | 55 | 52 | 6.0 | 13.0 | 0.00 | 0.00 | 0.00 | 51 | 1013.1 |
| 20260505191550 | 55 | 53 | 6.0 | 13.0 | 0.00 | 0.00 | 0.00 | 51 | 1013.1 |
| 20260505191049 | 55 | 83 | 4.0 | 12.0 | 0.00 | 0.00 | 0.00 | 52 | 1013.0 |
| 20260505190549 | 55 | 47 | 4.0 | 12.0 | 0.00 | 0.00 | 0.00 | 52 | 1013.0 |
| 20260505190055 | 55 | 63 | 4.0 | 21.0 | 0.00 | 0.00 | 0.00 | 52 | 1013.0 |
| 20260505185550 | 54 | 1 | 6.0 | 21.0 | 0.00 | 0.00 | 0.00 | 52 | 1013.2 |
| 20260505185048 | 54 | 84 | 6.0 | 17.0 | 0.00 | 0.00 | 0.00 | 51 | 1013.2 |
| 20260505184554 | 55 | 16 | 5.0 | 18.0 | 0.00 | 0.00 | 0.00 | 52 | 1013.4 |
| 20260505184051 | 55 | 64 | 8.0 | 18.0 | 0.00 | 0.00 | 0.00 | 51 | 1013.0 |
| 20260505183549 | 55 | 114 | 9.0 | 18.0 | 0.00 | 0.00 | 0.00 | 51 | 1013.0 |
| 20260505183051 | 55 | 63 | 7.0 | 16.0 | 0.00 | 0.00 | 0.00 | 51 | 1012.9 |
| 20260505182548 | 55 | 79 | 6.0 | 16.0 | 0.00 | 0.00 | 0.00 | 51 | 1012.9 |
| 20260505182048 | 55 | 139 | 8.0 | 20.0 | 0.00 | 0.00 | 0.00 | 52 | 1012.9 |
| 20260505181556 | 55 | 112 | 7.0 | 20.0 | 0.00 | 0.00 | 0.00 | 53 | 1012.9 |
| 20260505181050 | 54 | 271 | 7.0 | 22.0 | 0.00 | 0.00 | 0.00 | 52 | 1012.9 |
| 20260505180548 | 54 | 35 | 9.0 | 22.0 | 0.00 | 0.00 | 0.00 | 52 | 1013.2 |
| 20260505180054 | 54 | 0 | 6.0 | 16.0 | 0.00 | 0.00 | 0.00 | 52 | 1013.3 |
| 20260505175552 | 54 | 26 | 7.0 | 15.0 | 0.00 | 0.00 | 0.00 | 52 | 1013.3 |
| 20260505175048 | 54 | 49 | 7.0 | 15.0 | 0.00 | 0.00 | 0.00 | 53 | 1013.3 |
| 20260505174557 | 54 | 45 | 6.0 | 15.0 | 0.00 | 0.00 | 0.00 | 53 | 1013.2 |
| 20260505174049 | 53 | 46 | 7.0 | 18.0 | 0.00 | 0.00 | 0.00 | 54 | 1013.3 |
| 20260505173549 | 53 | 63 | 5.0 | 19.0 | 0.00 | 0.00 | 0.00 | 55 | 1013.5 |
| 20260505173053 | 52 | 68 | 8.0 | 19.0 | 0.00 | 0.00 | 0.00 | 54 | 1013.5 |
| 20260505172548 | 52 | 89 | 9.0 | 19.0 | 0.00 | 0.00 | 0.00 | 55 | 1013.5 |
| 20260505172048 | 52 | 141 | 9.0 | 16.0 | 0.00 | 0.00 | 0.00 | 55 | 1013.5 |
| 20260505171554 | 52 | 62 | 7.0 | 13.0 | 0.00 | 0.00 | 0.00 | 55 | 1013.8 |
| 20260505171049 | 51 | 51 | 5.0 | 14.0 | 0.00 | 0.00 | 0.00 | 55 | 1013.8 |
| 20260505170547 | 52 | 75 | 6.0 | 14.0 | 0.00 | 0.00 | 0.00 | 55 | 1013.8 |
| 20260505170059 | 52 | 65 | 6.0 | 17.0 | 0.00 | 0.00 | 0.00 | 55 | 1013.9 |
| 20260505165548 | 52 | 44 | 5.0 | 17.0 | 0.00 | 0.00 | 0.00 | 55 | 1013.9 |
| 20260505165048 | 52 | 84 | 7.0 | 17.0 | 0.00 | 0.00 | 0.00 | 54 | 1013.8 |
| 20260505164622 | 52 | 15 | 6.0 | 17.0 | 0.00 | 0.00 | 0.00 | 55 | 1013.9 |
| 20260505164050 | 52 | 1 | 6.0 | 20.0 | 0.00 | 0.00 | 0.00 | 54 | 1013.8 |
| 20260505163548 | 52 | 32 | 6.0 | 20.0 | 0.00 | 0.00 | 0.00 | 54 | 1013.6 |
| 20260505163102 | 52 | 73 | 6.0 | 13.0 | 0.00 | 0.00 | 0.00 | 55 | 1013.5 |
| 20260505162547 | 52 | 31 | 6.0 | 15.0 | 0.00 | 0.00 | 0.00 | 54 | 1013.4 |
| 20260505162048 | 51 | 57 | 8.0 | 17.0 | 0.00 | 0.00 | 0.00 | 54 | 1013.4 |
| 20260505161613 | 51 | 48 | 7.0 | 17.0 | 0.00 | 0.00 | 0.00 | 54 | 1013.4 |
| 20260505161048 | 52 | 41 | 7.0 | 15.0 | 0.00 | 0.00 | 0.00 | 54 | 1013.5 |
| 20260505160549 | 51 | 34 | 5.0 | 18.0 | 0.00 | 0.00 | 0.00 | 56 | 1013.4 |
| 20260505153107 | 51 | 65 | 5.0 | 17.0 | 0.00 | 0.00 | 0.00 | 56 | 1013.5 |
| 20260505152547 | 51 | 43 | 7.0 | 17.0 | 0.00 | 0.00 | 0.00 | 56 | 1013.5 |
| 20260505152048 | 51 | 79 | 7.0 | 16.0 | 0.00 | 0.00 | 0.00 | 54 | 1013.4 |
| 20260505151558 | 51 | 26 | 5.0 | 16.0 | 0.00 | 0.00 | 0.00 | 56 | 1013.2 |
| 20260505151048 | 50 | 307 | 4.0 | 18.0 | 0.00 | 0.00 | 0.00 | 57 | 1013.3 |
| 20260505150548 | 50 | 6 | 5.0 | 18.0 | 0.00 | 0.00 | 0.00 | 56 | 1013.3 |
| 20260505140544 | 49 | 77 | 7.0 | 16.0 | 0.00 | 0.00 | 0.00 | 56 | 1012.9 |
| 20260505130113 | 48 | 34 | 6.0 | 19.0 | 0.00 | 0.00 | 0.00 | 58 | 1011.5 |
| 20260505124612 | 48 | 1 | 4.0 | 17.0 | 0.00 | 0.00 | 0.00 | 59 | 1011.1 |
| 20260505124044 | 48 | 117 | 7.0 | 17.0 | 0.00 | 0.00 | 0.00 | 58 | 1010.9 |
| 20260505123546 | 48 | 69 | 7.0 | 20.0 | 0.00 | 0.00 | 0.00 | 58 | 1010.9 |
| 20260505123110 | 48 | 42 | 6.0 | 20.0 | 0.00 | 0.00 | 0.00 | 59 | 1010.8 |
| 20260505122545 | 48 | 30 | 8.0 | 18.0 | 0.00 | 0.00 | 0.00 | 59 | 1010.7 |
| 20260505122045 | 48 | 34 | 6.0 | 18.0 | 0.00 | 0.00 | 0.00 | 60 | 1010.6 |
| 20260505121555 | 48 | 34 | 4.0 | 19.0 | 0.00 | 0.00 | 0.00 | 60 | 1010.3 |
| 20260505121049 | 48 | 47 | 6.0 | 19.0 | 0.00 | 0.00 | 0.00 | 60 | 1010.1 |
| 20260505120549 | 48 | 39 | 7.0 | 17.0 | 0.00 | 0.00 | 0.00 | 60 | 1009.9 |
| 20260505120123 | 48 | 45 | 5.0 | 20.0 | 0.00 | 0.00 | 0.00 | 59 | 1009.8 |
| 20260505115545 | 48 | 113 | 7.0 | 20.0 | 0.00 | 0.00 | 0.00 | 59 | 1009.8 |
| 20260505115048 | 48 | 68 | 7.0 | 20.0 | 0.00 | 0.00 | 0.00 | 59 | 1009.6 |
| 20260505114601 | 48 | 65 | 6.0 | 14.0 | 0.00 | 0.00 | 0.00 | 59 | 1009.5 |
| 20260505114048 | 48 | 1 | 6.0 | 17.0 | 0.00 | 0.00 | 0.00 | 58 | 1009.4 |
| 20260505113548 | 48 | 69 | 8.0 | 20.0 | 0.00 | 0.00 | 0.00 | 58 | 1009.2 |
| 20260505113105 | 48 | 31 | 8.0 | 21.0 | 0.00 | 0.00 | 0.00 | 58 | 1009.1 |
| 20260505112552 | 48 | 63 | 9.0 | 23.0 | 0.00 | 0.00 | 0.00 | 58 | 1009.2 |
| 20260505112047 | 48 | 25 | 6.0 | 25.0 | 0.00 | 0.00 | 0.00 | 57 | 1009.1 |
| 20260505111553 | 49 | 65 | 9.0 | 25.0 | 0.00 | 0.00 | 0.00 | 57 | 1009.2 |
| 20260505111047 | 49 | 23 | 11.0 | 25.0 | 0.00 | 0.00 | 0.00 | 57 | 1009.1 |
| 20260505110548 | 49 | 28 | 8.0 | 21.0 | 0.00 | 0.00 | 0.00 | 57 | 1009.1 |
| 20260505110120 | 49 | 34 | 11.0 | 21.0 | 0.00 | 0.00 | 0.00 | 57 | 1009.1 |
| 20260505102048 | 49 | 41 | 16.0 | 30.0 | 0.00 | 0.00 | 0.00 | 56 | 1008.5 |
| 20260505101601 | 49 | 39 | 16.0 | 30.0 | 0.00 | 0.00 | 0.00 | 56 | 1008.4 |
| 20260505101052 | 50 | 58 | 16.0 | 25.0 | 0.00 | 0.00 | 0.00 | 56 | 1008.5 |
| 20260505100547 | 50 | 46 | 14.0 | 24.0 | 0.00 | 0.00 | 0.00 | 56 | 1008.6 |
| 20260505100056 | 50 | 7 | 14.0 | 24.0 | 0.00 | 0.00 | 0.00 | 56 | 1008.5 |
| 20260505095545 | 50 | 23 | 14.0 | 23.0 | 0.00 | 0.00 | 0.00 | 55 | 1008.4 |
| 20260505095047 | 50 | 63 | 13.0 | 22.0 | 0.00 | 0.00 | 0.00 | 55 | 1008.5 |
| 20260505094556 | 51 | 47 | 13.0 | 22.0 | 0.00 | 0.00 | 0.00 | 55 | 1008.3 |
| 20260505094048 | 51 | 7 | 12.0 | 26.0 | 0.00 | 0.00 | 0.00 | 56 | 1008.3 |
| 20260505093548 | 51 | 43 | 15.0 | 26.0 | 0.00 | 0.00 | 0.00 | 55 | 1008.1 |
| 20260505093107 | 51 | 29 | 15.0 | 26.0 | 0.00 | 0.00 | 0.00 | 55 | 1007.9 |
| 20260505092544 | 51 | 40 | 14.0 | 31.0 | 0.00 | 0.00 | 0.00 | 55 | 1008.0 |
| 20260505092047 | 51 | 56 | 13.0 | 31.0 | 0.00 | 0.00 | 0.00 | 54 | 1008.0 |
| 20260505091554 | 52 | 49 | 15.0 | 31.0 | 0.00 | 0.00 | 0.00 | 54 | 1007.8 |
| 20260505091048 | 52 | 9 | 14.0 | 25.0 | 0.00 | 0.00 | 0.00 | 54 | 1007.6 |
| 20260505090547 | 52 | 36 | 14.0 | 25.0 | 0.00 | 0.00 | 0.00 | 53 | 1007.4 |
| 20260505090056 | 52 | 30 | 12.0 | 23.0 | 0.00 | 0.00 | 0.00 | 53 | 1007.4 |
| 20260505085548 | 52 | 68 | 13.0 | 22.0 | 0.00 | 0.00 | 0.00 | 52 | 1007.1 |
| 20260505085049 | 52 | 31 | 12.0 | 27.0 | 0.00 | 0.00 | 0.00 | 52 | 1006.9 |
| 20260505084551 | 52 | 61 | 11.0 | 27.0 | 0.00 | 0.00 | 0.00 | 52 | 1006.8 |
| 20260505084048 | 52 | 24 | 12.0 | 22.0 | 0.00 | 0.00 | 0.00 | 52 | 1006.7 |
| 20260505083548 | 52 | 32 | 9.0 | 25.0 | 0.00 | 0.00 | 0.00 | 52 | 1006.6 |
| 20260505083049 | 52 | 57 | 12.0 | 26.0 | 0.00 | 0.00 | 0.00 | 53 | 1006.6 |
| 20260505082548 | 52 | 350 | 13.0 | 26.0 | 0.00 | 0.00 | 0.00 | 53 | 1006.5 |
| 20260505082048 | 52 | 6 | 12.0 | 25.0 | 0.00 | 0.00 | 0.00 | 53 | 1006.3 |
| 20260505081603 | 52 | 11 | 11.0 | 23.0 | 0.00 | 0.00 | 0.00 | 54 | 1006.0 |
| 20260505081045 | 52 | 57 | 11.0 | 22.0 | 0.00 | 0.00 | 0.00 | 54 | 1006.0 |
| 20260505080546 | 52 | 65 | 12.0 | 21.0 | 0.00 | 0.00 | 0.00 | 54 | 1005.9 |
| 20260505080107 | 52 | 349 | 9.0 | 20.0 | 0.00 | 0.00 | 0.00 | 54 | 1005.8 |
| 20260505075551 | 52 | 29 | 12.0 | 23.0 | 0.00 | 0.00 | 0.00 | 53 | 1005.8 |
| 20260505075048 | 52 | 52 | 12.0 | 23.0 | 0.00 | 0.00 | 0.00 | 53 | 1005.7 |
| 20260505074559 | 53 | 59 | 10.0 | 23.0 | 0.00 | 0.00 | 0.00 | 52 | 1005.7 |
| 20260505074047 | 53 | 51 | 12.0 | 27.0 | 0.00 | 0.00 | 0.00 | 51 | 1005.6 |
| 20260505073547 | 53 | 63 | 13.0 | 27.0 | 0.00 | 0.00 | 0.00 | 52 | 1005.6 |
| 20260505073058 | 54 | 56 | 13.0 | 30.0 | 0.00 | 0.00 | 0.00 | 52 | 1005.5 |
| 20260505072547 | 54 | 42 | 13.0 | 30.0 | 0.00 | 0.00 | 0.00 | 52 | 1005.2 |
| 20260505072051 | 55 | 53 | 15.0 | 23.0 | 0.00 | 0.00 | 0.00 | 52 | 1005.1 |
| 20260505071610 | 55 | 41 | 11.0 | 21.0 | 0.00 | 0.00 | 0.00 | 52 | 1005.1 |
| 20260505071047 | 56 | 82 | 10.0 | 21.0 | 0.00 | 0.00 | 0.00 | 51 | 1005.0 |
| 20260505070549 | 56 | 13 | 12.0 | 21.0 | 0.00 | 0.00 | 0.00 | 51 | 1004.9 |
| 20260505070110 | 56 | 57 | 9.0 | 22.0 | 0.00 | 0.00 | 0.00 | 51 | 1005.0 |
| 20260505065548 | 57 | 63 | 10.0 | 22.0 | 0.00 | 0.00 | 0.00 | 51 | 1005.1 |
| 20260505065047 | 57 | 39 | 9.0 | 22.0 | 0.00 | 0.00 | 0.00 | 50 | 1005.0 |
| 20260505064556 | 57 | 73 | 9.0 | 22.0 | 0.00 | 0.00 | 0.00 | 50 | 1005.0 |
| 20260505064045 | 57 | 54 | 8.0 | 22.0 | 0.00 | 0.00 | 0.00 | 50 | 1005.2 |
| 20260505063548 | 57 | 29 | 11.0 | 24.0 | 0.00 | 0.00 | 0.00 | 50 | 1005.2 |
| 20260505063058 | 57 | 356 | 11.0 | 24.0 | 0.00 | 0.00 | 0.00 | 51 | 1005.2 |
| 20260505062549 | 58 | 57 | 11.0 | 24.0 | 0.00 | 0.00 | 0.00 | 51 | 1005.3 |
| 20260505062046 | 58 | 22 | 9.0 | 20.0 | 0.00 | 0.00 | 0.00 | 52 | 1005.2 |
| 20260505061554 | 58 | 41 | 10.0 | 20.0 | 0.00 | 0.00 | 0.00 | 52 | 1005.2 |
| 20260505061047 | 58 | 51 | 11.0 | 19.0 | 0.00 | 0.00 | 0.00 | 53 | 1005.5 |
| 20260505060550 | 58 | 8 | 11.0 | 19.0 | 0.00 | 0.00 | 0.00 | 53 | 1005.5 |
| 20260505060056 | 58 | 22 | 10.0 | 19.0 | 0.00 | 0.00 | 0.00 | 54 | 1005.4 |
| 20260505055548 | 58 | 21 | 11.0 | 18.0 | 0.00 | 0.00 | 0.00 | 55 | 1005.4 |
| 20260505055047 | 58 | 14 | 8.0 | 17.0 | 0.00 | 0.00 | 0.00 | 55 | 1005.4 |
| 20260505054557 | 58 | 24 | 9.0 | 17.0 | 0.00 | 0.00 | 0.00 | 55 | 1005.4 |
| 20260505054048 | 59 | 47 | 8.0 | 16.0 | 0.00 | 0.00 | 0.00 | 55 | 1005.4 |
| 20260505053548 | 59 | 37 | 8.0 | 15.0 | 0.00 | 0.00 | 0.00 | 55 | 1005.4 |
| 20260505053104 | 60 | 13 | 8.0 | 15.0 | 0.00 | 0.00 | 0.00 | 55 | 1005.3 |
| 20260505052548 | 60 | 35 | 7.0 | 17.0 | 0.00 | 0.00 | 0.00 | 55 | 1005.0 |
| 20260505052051 | 61 | 37 | 7.0 | 17.0 | 0.00 | 0.00 | 0.00 | 55 | 1005.0 |
| 20260505051554 | 61 | 20 | 7.0 | 19.0 | 0.00 | 0.00 | 0.00 | 54 | 1004.8 |
| 20260505051051 | 62 | 43 | 9.0 | 19.0 | 0.00 | 0.00 | 0.00 | 53 | 1004.6 |
| 20260505050547 | 62 | 64 | 8.0 | 15.0 | 0.00 | 0.00 | 0.00 | 53 | 1004.3 |
| 20260505041554 | 61 | 39 | 1.0 | 4.0 | 0.00 | 0.00 | 0.00 | 58 | 1003.0 |
| 20260505041048 | 62 | 0 | 0.0 | 4.0 | 0.00 | 0.00 | 0.00 | 57 | 1002.9 |
| 20260505040547 | 62 | 0 | 1.0 | 4.0 | 0.00 | 0.00 | 0.00 | 56 | 1002.9 |
| 20260505040105 | 63 | 78 | 1.0 | 4.0 | 0.00 | 0.00 | 0.00 | 55 | 1002.8 |
| 20260505035547 | 64 | 58 | 0.0 | 7.0 | 0.00 | 0.00 | 0.00 | 53 | 1002.8 |
| 20260505035047 | 64 | 180 | 1.0 | 7.0 | 0.00 | 0.00 | 0.00 | 54 | 1002.8 |
| 20260505034550 | 64 | 101 | 3.0 | 7.0 | 0.00 | 0.00 | 0.00 | 53 | 1002.7 |
| 20260505034047 | 65 | 72 | 1.0 | 8.0 | 0.00 | 0.00 | 0.00 | 51 | 1002.6 |
| 20260505033547 | 65 | 115 | 3.0 | 8.0 | 0.00 | 0.00 | 0.00 | 52 | 1002.5 |
| 20260505033054 | 64 | 56 | 3.0 | 7.0 | 0.00 | 0.00 | 0.00 | 51 | 1002.5 |
| 20260505032547 | 65 | 86 | 1.0 | 6.0 | 0.00 | 0.00 | 0.00 | 51 | 1002.6 |
| 20260505032046 | 65 | 25 | 1.0 | 12.0 | 0.00 | 0.00 | 0.00 | 49 | 1002.7 |
| 20260505031552 | 65 | 95 | 6.0 | 12.0 | 0.00 | 0.00 | 0.00 | 50 | 1002.7 |
| 20260505031046 | 65 | 89 | 1.0 | 9.0 | 0.00 | 0.00 | 0.00 | 49 | 1002.6 |
| 20260505030548 | 66 | 51 | 3.0 | 9.0 | 0.00 | 0.00 | 0.00 | 48 | 1002.5 |
| 20260505030053 | 66 | 98 | 6.0 | 9.0 | 0.00 | 0.00 | 0.00 | 48 | 1002.4 |
| 20260505025547 | 66 | 94 | 6.0 | 9.0 | 0.00 | 0.00 | 0.00 | 48 | 1002.3 |
| 20260505025049 | 66 | 110 | 7.0 | 9.0 | 0.00 | 0.00 | 0.00 | 48 | 1002.2 |
| 20260505024555 | 66 | 114 | 7.0 | 10.0 | 0.00 | 0.00 | 0.00 | 48 | 1002.1 |
| 20260505024047 | 66 | 118 | 6.0 | 10.0 | 0.00 | 0.00 | 0.00 | 47 | 1002.2 |
| 20260505023546 | 66 | 101 | 7.0 | 10.0 | 0.00 | 0.00 | 0.00 | 47 | 1002.1 |
| 20260505023057 | 66 | 100 | 6.0 | 9.0 | 0.00 | 0.00 | 0.00 | 47 | 1002.1 |
| 20260505022548 | 66 | 126 | 5.0 | 8.0 | 0.00 | 0.00 | 0.00 | 46 | 1002.2 |
| 20260505022048 | 66 | 97 | 5.0 | 8.0 | 0.00 | 0.00 | 0.00 | 45 | 1002.2 |
| 20260505021552 | 67 | 97 | 6.0 | 9.0 | 0.00 | 0.00 | 0.00 | 43 | 1002.1 |
| 20260505021047 | 68 | 105 | 6.0 | 9.0 | 0.00 | 0.00 | 0.00 | 42 | 1001.9 |
| 20260505020547 | 69 | 106 | 6.0 | 11.0 | 0.00 | 0.00 | 0.00 | 41 | 1002.0 |
| 20260505020055 | 69 | 85 | 6.0 | 13.0 | 0.00 | 0.00 | 0.00 | 40 | 1002.0 |
| 20260505015548 | 70 | 86 | 9.0 | 13.0 | 0.00 | 0.00 | 0.00 | 40 | 1002.1 |
| 20260505015047 | 70 | 108 | 9.0 | 13.0 | 0.00 | 0.00 | 0.00 | 40 | 1002.1 |
| 20260505014550 | 70 | 124 | 8.0 | 11.0 | 0.00 | 0.00 | 0.00 | 39 | 1002.1 |
| 20260505014048 | 70 | 92 | 5.0 | 8.0 | 0.00 | 0.00 | 0.00 | 38 | 1001.9 |
| 20260505013546 | 71 | 102 | 5.0 | 8.0 | 0.00 | 0.00 | 0.00 | 37 | 1001.8 |
| 20260505013054 | 72 | 80 | 2.0 | 6.0 | 0.00 | 0.00 | 0.00 | 36 | 1001.6 |
| 20260505012547 | 73 | 82 | 1.0 | 6.0 | 0.00 | 0.00 | 0.00 | 34 | 1001.6 |
| 20260505012051 | 74 | 79 | 1.0 | 9.0 | 0.00 | 0.00 | 0.00 | 33 | 1001.4 |
| 20260505011554 | 74 | 51 | 5.0 | 9.0 | 0.00 | 0.00 | 0.00 | 33 | 1001.5 |
| 20260505011050 | 74 | 73 | 5.0 | 9.0 | 0.00 | 0.00 | 0.00 | 32 | 1001.3 |
| 20260505010546 | 75 | 92 | 2.0 | 6.0 | 0.00 | 0.00 | 0.00 | 32 | 1001.5 |
| 20260505010100 | 75 | 0 | 1.0 | 8.0 | 0.00 | 0.00 | 0.00 | 31 | 1001.3 |
| 20260505005545 | 76 | 0 | 2.0 | 13.0 | 0.00 | 0.00 | 0.00 | 32 | 1001.1 |
| 20260505005045 | 76 | 89 | 5.0 | 14.0 | 0.00 | 0.00 | 0.00 | 31 | 1001.0 |
| 20260505004552 | 77 | 70 | 7.0 | 14.0 | 0.00 | 0.00 | 0.00 | 30 | 1001.1 |
| 20260505004046 | 78 | 79 | 8.0 | 13.0 | 0.00 | 0.00 | 0.00 | 28 | 1001.2 |
| 20260505003546 | 79 | 75 | 3.0 | 10.0 | 0.00 | 0.00 | 0.00 | 26 | 1001.2 |
| 20260505003050 | 79 | 114 | 3.0 | 15.0 | 0.00 | 0.00 | 0.00 | 25 | 1001.2 |
| 20260505002548 | 79 | 51 | 5.0 | 15.0 | 0.00 | 0.00 | 0.00 | 26 | 1001.3 |
| 20260505002048 | 78 | 47 | 5.0 | 9.0 | 0.00 | 0.00 | 0.00 | 27 | 1001.3 |
| 20260505001553 | 79 | 12 | 4.0 | 8.0 | 0.00 | 0.00 | 0.00 | 27 | 1001.7 |
| 20260505001046 | 79 | 100 | 0.0 | 6.0 | 0.00 | 0.00 | 0.00 | 27 | 1001.7 |
| 20260505000546 | 80 | 57 | 1.0 | 7.0 | 0.00 | 0.00 | 0.00 | 26 | 1001.7 |
| 20260505000105 | 80 | 56 | 0.0 | 7.0 | 0.00 | 0.00 | 0.00 | 25 | 1001.9 |
| 20260504235546 | 80 | 107 | 0.0 | 4.0 | 0.00 | 0.00 | 0.00 | 25 | 1001.6 |
| 20260504235047 | 80 | 68 | 0.0 | 5.0 | 0.00 | 0.00 | 0.00 | 25 | 1001.4 |
| 20260504234553 | 80 | 0 | 1.0 | 9.0 | 0.00 | 0.00 | 0.00 | 25 | 1001.6 |
| 20260504234048 | 80 | 71 | 3.0 | 9.0 | 0.00 | 0.00 | 0.00 | 25 | 1001.5 |
| 20260504233547 | 80 | 91 | 3.0 | 9.0 | 0.00 | 0.00 | 0.00 | 25 | 1001.6 |
| 20260504233054 | 80 | 0 | 0.0 | 4.0 | 0.00 | 0.00 | 0.00 | 24 | 1001.6 |
| 20260504232546 | 81 | 0 | 1.0 | 4.0 | 0.00 | 0.00 | 0.00 | 24 | 1001.5 |
| 20260504232046 | 81 | 0 | 0.0 | 5.0 | 0.00 | 0.00 | 0.00 | 24 | 1001.6 |
| 20260504231552 | 81 | 25 | 0.0 | 18.0 | 0.00 | 0.00 | 0.00 | 23 | 1001.6 |
| 20260504231048 | 81 | 134 | 8.0 | 18.0 | 0.00 | 0.00 | 0.00 | 23 | 1001.9 |
| 20260504230551 | 80 | 139 | 5.0 | 14.0 | 0.00 | 0.00 | 0.00 | 23 | 1002.0 |
| 20260504230050 | 81 | 159 | 7.0 | 12.0 | 0.00 | 0.00 | 0.00 | 23 | 1002.1 |
| 20260504225548 | 81 | 160 | 4.0 | 8.0 | 0.00 | 0.00 | 0.00 | 24 | 1002.1 |
| 20260504225050 | 81 | 251 | 2.0 | 6.0 | 0.00 | 0.00 | 0.00 | 25 | 1002.4 |
| 20260504224550 | 81 | 0 | 0.0 | 6.0 | 0.00 | 0.00 | 0.00 | 25 | 1002.1 |
| 20260504224050 | 81 | 70 | 0.0 | 3.0 | 0.00 | 0.00 | 0.00 | 25 | 1001.9 |
| 20260504223548 | 81 | 57 | 0.0 | 9.0 | 0.00 | 0.00 | 0.00 | 25 | 1001.9 |
| 20260504223057 | 81 | 48 | 1.0 | 16.0 | 0.00 | 0.00 | 0.00 | 25 | 1001.8 |
| 20260504222549 | 82 | 82 | 5.0 | 16.0 | 0.00 | 0.00 | 0.00 | 24 | 1001.7 |
| 20260504222048 | 82 | 62 | 4.0 | 10.0 | 0.00 | 0.00 | 0.00 | 24 | 1001.7 |
| 20260504221554 | 82 | 65 | 6.0 | 10.0 | 0.00 | 0.00 | 0.00 | 23 | 1001.9 |